Date String (YYYY-MM-DD hh:mm:ss) UTC,Instrument flags,Ambient pressure (hPa),Sample flow (lpm),Bypass flow (lpm),Sample temperature (°C),Ambient temperature (°C),ASC tube jacket temperature (°C),LED temperature (°C),Box temperature (°C),Sample RH (%),Span deviation,Mass concentration (μg/m³),Mass concentration (μg/m³),Mass concentration (μg/m³)
DateTimeUTC,F1_M11,P_M11,Q1_M11,Q2_M11,T1_M11,T2_M11,T3_M11,T4_M11,T5_M11,U1_M11,ZSPAN_M11,X0_M11,X2_M11,X1_M11
2022-02-10 02:00:00,,0828.3,5.00,0.00,26.4,25.6,00.0,35.5,28.2,08.3,0000.0,0008.26,0004.24,0003.82
2022-02-10 02:01:00,,0828.3,5.00,0.00,26.4,25.6,00.0,35.5,28.2,08.4,0000.0,0009.06,0004.19,0003.80
2022-02-10 02:02:00,,0828.3,5.01,0.00,26.4,25.6,00.0,35.5,28.2,08.1,0000.0,0009.21,0004.07,0003.72
2022-02-10 02:03:00,,0828.4,4.99,0.00,26.4,25.6,00.0,35.5,28.2,08.0,0000.0,0009.21,0003.99,0003.65
2022-02-10 02:04:00,,0828.3,5.01,0.00,26.4,25.6,00.0,35.4,28.2,07.9,0000.0,0008.91,0003.92,0003.58
2022-02-10 02:05:00,,0828.3,5.01,0.00,26.4,25.6,00.0,35.4,28.2,07.8,0000.0,0008.40,0003.84,0003.52
2022-02-10 02:06:00,,0828.4,4.98,0.00,26.4,25.6,00.0,35.4,28.2,07.7,0000.0,0008.20,0003.75,0003.47
2022-02-10 02:07:00,,0828.4,5.00,0.00,26.4,25.6,00.0,35.4,28.2,07.9,0000.0,0007.85,0003.58,0003.38
2022-02-10 02:08:00,,0828.3,5.00,0.00,26.4,25.6,00.0,35.4,28.2,07.9,0000.0,0007.78,0003.53,0003.34
2022-02-10 02:09:00,,0828.4,5.02,0.00,26.4,25.6,00.0,35.4,28.2,08.1,0000.0,0007.81,0003.52,0003.32
2022-02-10 02:10:00,,0828.3,4.99,0.00,26.4,25.6,00.0,35.4,28.2,08.1,0000.0,0007.83,0003.51,0003.29
2022-02-10 02:11:00,,0828.3,5.00,0.00,26.4,25.5,00.0,35.4,28.1,08.4,0000.0,0007.72,0003.43,0003.21
2022-02-10 02:12:00,,0828.4,5.00,0.00,26.4,25.5,00.0,35.4,28.1,08.5,0000.0,0006.61,0003.30,0003.07
2022-02-10 02:13:00,,0828.3,5.01,0.00,26.4,25.5,00.0,35.4,28.1,08.5,0000.0,0005.22,0003.24,0002.93
2022-02-10 02:14:00,,0828.3,5.00,0.00,26.3,25.5,00.0,35.4,28.1,08.5,0000.0,0004.86,0003.19,0002.83
2022-02-10 02:15:00,,0828.3,5.00,0.00,26.3,25.5,00.0,35.4,28.1,08.6,0000.0,0004.39,0003.08,0002.71
2022-02-10 02:16:00,,0828.3,4.99,0.00,26.3,25.5,00.0,35.4,28.1,08.6,0000.0,0004.18,0002.91,0002.53
2022-02-10 02:17:00,,0828.4,5.02,0.00,26.3,25.4,00.0,35.4,28.0,08.4,0000.0,0004.31,0002.82,0002.38
2022-02-10 02:18:00,,0828.4,4.99,0.00,26.3,25.4,00.0,35.3,28.0,08.4,0000.0,0004.59,0002.89,0002.40
2022-02-10 02:19:00,,0828.4,5.01,0.00,26.3,25.4,00.0,35.3,28.0,08.4,0000.0,0004.70,0002.91,0002.38
2022-02-10 02:20:00,,0828.4,5.01,0.00,26.2,25.4,00.0,35.3,28.0,08.4,0000.0,0004.73,0002.93,0002.33
2022-02-10 02:21:00,,0828.4,4.99,0.00,26.2,25.3,00.0,35.3,27.9,08.4,0000.0,0004.68,0002.92,0002.33
2022-02-10 02:22:00,,0828.4,5.00,0.00,26.2,25.3,00.0,35.3,27.9,08.4,0000.0,0004.77,0002.97,0002.37
2022-02-10 02:23:00,,0828.4,5.01,0.00,26.1,25.2,00.0,35.3,27.8,08.4,0000.0,0005.04,0003.06,0002.42
2022-02-10 02:24:00,,0828.4,4.99,0.00,26.1,25.2,00.0,35.3,27.8,08.5,0000.0,0005.23,0003.15,0002.53
2022-02-10 02:25:00,,0828.4,5.01,0.00,26.1,25.1,00.0,35.2,27.8,08.5,0000.0,0005.59,0003.25,0002.66
2022-02-10 02:26:00,,0828.5,4.99,0.00,26.0,25.1,00.0,35.2,27.7,08.6,0000.0,0005.97,0003.37,0002.83
2022-02-10 02:27:00,,0828.5,5.00,0.00,25.9,25.0,00.0,35.2,27.6,08.6,0000.0,0007.34,0003.49,0002.98
2022-02-10 02:28:00,,0828.5,5.00,0.00,25.9,24.9,00.0,35.1,27.5,08.6,0000.0,0007.37,0003.50,0003.03
2022-02-10 02:29:00,,0828.4,5.01,0.00,25.9,24.9,00.0,35.1,27.6,08.7,0000.0,0007.35,0003.45,0002.95
2022-02-10 02:30:00,,0828.4,4.98,0.00,25.9,25.0,00.0,35.1,27.6,08.7,0000.0,0007.33,0003.37,0002.82
2022-02-10 02:31:00,,0828.4,5.01,0.00,25.9,25.0,00.0,35.1,27.6,08.7,0000.0,0006.97,0003.26,0002.71
2022-02-10 02:32:00,,0828.4,4.99,0.00,25.9,25.0,00.0,35.1,27.6,08.7,0000.0,0006.56,0003.14,0002.57
2022-02-10 02:33:00,,0828.5,5.02,0.00,25.9,25.0,00.0,35.0,27.6,08.7,0000.0,0006.62,0003.02,0002.44
2022-02-10 02:34:00,,0828.4,4.99,0.00,25.9,25.1,00.0,35.0,27.6,08.6,0000.0,0006.98,0002.93,0002.35
2022-02-10 02:35:00,,0829.0,5.01,0.00,25.9,25.1,00.0,35.0,27.7,08.7,0000.0,0006.78,0002.77,0002.19
2022-02-10 02:36:00,,0829.1,4.99,0.00,25.9,25.1,00.0,35.0,27.7,08.8,0000.0,0006.27,0002.49,0001.99
2022-02-10 02:37:00,,0829.0,5.01,0.00,25.9,25.1,00.0,35.0,27.7,09.0,0000.0,0005.78,0002.19,0001.76
2022-02-10 02:38:00,,0829.0,5.00,0.00,25.9,25.1,00.0,35.0,27.7,09.1,0000.0,0004.24,0001.92,0001.54
2022-02-10 02:39:00,,0829.1,5.00,0.00,25.9,25.1,00.0,35.0,27.7,09.1,0000.0,0003.77,0001.70,0001.36
2022-02-10 02:40:00,,0829.0,5.00,0.00,25.9,25.1,00.0,35.0,27.7,09.2,0000.0,0003.23,0001.51,0001.22
2022-02-10 02:41:00,,0829.0,4.98,0.00,25.9,25.1,00.0,35.0,27.6,09.2,0000.0,0002.85,0001.36,0001.09
2022-02-10 02:42:00,,0829.0,5.01,0.00,25.9,25.1,00.0,35.0,27.7,09.1,0000.0,0002.68,0001.23,0000.97
2022-02-10 02:43:00,,0829.0,4.98,0.00,25.9,25.1,00.0,35.0,27.7,08.9,0000.0,0002.55,0001.12,0000.86
2022-02-10 02:44:00,,0828.5,5.01,0.00,25.9,25.1,00.0,35.0,27.7,08.8,0000.0,0002.06,0000.99,0000.76
2022-02-10 02:45:00,,0828.5,4.99,0.00,25.9,25.1,00.0,35.0,27.7,08.9,0000.0,0001.25,0000.85,0000.67
2022-02-10 02:46:00,,0828.5,5.00,0.00,25.9,25.1,00.0,34.9,27.7,08.8,0000.0,0001.06,0000.75,0000.61
2022-02-10 02:47:00,,0828.5,4.99,0.00,25.9,25.1,00.0,34.9,27.7,08.8,0000.0,0001.11,0000.71,0000.57
2022-02-10 02:48:00,,0829.0,5.02,0.00,25.9,25.1,00.0,34.9,27.6,08.9,0000.0,0001.15,0000.68,0000.53
2022-02-10 02:49:00,,0828.9,4.99,0.00,25.9,25.1,00.0,34.9,27.6,09.0,0000.0,0001.09,0000.63,0000.51
2022-02-10 02:50:00,,0828.6,4.99,0.00,25.9,25.1,00.0,34.9,27.6,08.9,0000.0,0001.21,0000.63,0000.50
2022-02-10 02:51:00,,0828.7,5.01,0.00,25.9,25.0,00.0,34.9,27.6,08.8,0000.0,0001.27,0000.63,0000.50
2022-02-10 02:52:00,,0828.5,4.99,0.00,25.9,25.0,00.0,34.9,27.6,08.9,0000.0,0001.34,0000.64,0000.50
2022-02-10 02:53:00,,0828.6,5.01,0.00,25.9,25.0,00.0,34.9,27.6,09.1,0000.0,0001.33,0000.63,0000.49
2022-02-10 02:54:00,,0828.9,4.99,0.00,25.9,25.0,00.0,34.9,27.6,09.1,0000.0,0001.38,0000.65,0000.49
2022-02-10 02:55:00,,0828.9,5.01,0.00,25.9,25.0,00.0,34.9,27.6,08.8,0000.0,0001.40,0000.65,0000.49
2022-02-10 02:56:00,,0829.0,5.00,0.00,25.9,25.0,00.0,34.9,27.6,08.9,0000.0,0001.47,0000.65,0000.49
2022-02-10 02:57:00,,0829.1,4.99,0.00,25.9,25.0,00.0,34.9,27.6,08.9,0000.0,0001.45,0000.64,0000.49
2022-02-10 02:58:00,,0828.9,5.01,0.00,25.9,25.0,00.0,34.9,27.6,08.7,0000.0,0001.43,0000.65,0000.49
2022-02-10 02:59:00,,0828.6,4.99,0.00,25.8,25.0,00.0,34.9,27.6,08.9,0000.0,0001.27,0000.64,0000.50
